| time (UTC) | temp C | wind direction | speed KPH | gust KPH | rain 1hr cm | rain 24hr cm | rain mn cm | humidity % | barometer mb |
| 20260507091538 | 8 | 273 | 3.2 | 8.0 | 0.00 | 0.69 | 0.03 | 86 | 1008.4 |
| 20260507091018 | 8 | 286 | 3.2 | 9.7 | 0.03 | 0.69 | 0.03 | 86 | 1008.4 |
| 20260507090520 | 8 | 260 | 3.2 | 12.9 | 0.03 | 0.69 | 0.03 | 86 | 1008.5 |
| 20260507090035 | 8 | 273 | 3.2 | 12.9 | 0.03 | 0.69 | 0.03 | 85 | 1008.6 |
| 20260507085517 | 8 | 291 | 3.2 | 11.3 | 0.03 | 0.69 | 0.03 | 85 | 1008.5 |
| 20260507085022 | 8 | 281 | 4.8 | 11.3 | 0.03 | 0.69 | 0.03 | 85 | 1008.7 |
| 20260507084539 | 8 | 290 | 1.6 | 11.3 | 0.03 | 0.69 | 0.03 | 85 | 1008.4 |
| 20260507084021 | 8 | 294 | 3.2 | 11.3 | 0.03 | 0.69 | 0.03 | 85 | 1008.2 |
| 20260507083517 | 8 | 259 | 4.8 | 11.3 | 0.03 | 0.69 | 0.03 | 85 | 1008.2 |
| 20260507083040 | 8 | 290 | 3.2 | 11.3 | 0.03 | 0.69 | 0.03 | 85 | 1008.1 |
| 20260507082518 | 8 | 274 | 3.2 | 6.4 | 0.03 | 0.69 | 0.03 | 85 | 1008.0 |
| 20260507082017 | 8 | 269 | 1.6 | 6.4 | 0.03 | 0.69 | 0.03 | 85 | 1008.0 |
| 20260507081541 | 8 | 288 | 1.6 | 12.9 | 0.03 | 0.69 | 0.03 | 85 | 1008.0 |
| 20260507081017 | 8 | 305 | 1.6 | 12.9 | 0.00 | 0.66 | 0.00 | 84 | 1007.9 |
| 20260507080516 | 8 | 296 | 1.6 | 6.4 | 0.00 | 0.66 | 0.00 | 84 | 1007.8 |
| 20260507080046 | 9 | 294 | 1.6 | 8.0 | 0.00 | 0.66 | 0.00 | 83 | 1007.7 |
| 20260507075517 | 9 | 318 | 3.2 | 9.7 | 0.00 | 0.66 | 0.00 | 83 | 1008.0 |
| 20260507075020 | 9 | 302 | 4.8 | 9.7 | 0.00 | 0.66 | 0.00 | 82 | 1008.1 |
| 20260507074535 | 9 | 271 | 4.8 | 17.7 | 0.00 | 0.66 | 0.00 | 81 | 1008.4 |
| 20260507074020 | 9 | 300 | 6.4 | 17.7 | 0.00 | 0.66 | 0.00 | 81 | 1008.2 |
| 20260507073519 | 9 | 294 | 6.4 | 16.1 | 0.00 | 0.66 | 0.00 | 81 | 1008.1 |
| 20260507073046 | 9 | 284 | 3.2 | 14.5 | 0.00 | 0.66 | 0.00 | 82 | 1008.2 |
| 20260507072520 | 9 | 268 | 3.2 | 12.9 | 0.00 | 0.66 | 0.00 | 83 | 1007.8 |
| 20260507072021 | 9 | 259 | 4.8 | 14.5 | 0.00 | 0.66 | 0.00 | 84 | 1007.5 |
| 20260507071540 | 10 | 277 | 6.4 | 14.5 | 0.00 | 0.66 | 0.00 | 85 | 1007.6 |
| 20260507071020 | 10 | 286 | 6.4 | 14.5 | 0.00 | 0.66 | 0.00 | 85 | 1007.6 |
| 20260507070520 | 10 | 334 | 6.4 | 12.9 | 0.00 | 0.66 | 0.00 | 86 | 1007.5 |
| 20260507070048 | 10 | 296 | 3.2 | 12.9 | 0.00 | 0.66 | 0.00 | 87 | 1007.6 |
| 20260507065520 | 10 | 275 | 3.2 | 9.7 | 0.00 | 0.66 | 0.00 | 87 | 1007.9 |
| 20260507065017 | 10 | 284 | 1.6 | 8.0 | 0.00 | 0.66 | 0.00 | 87 | 1007.7 |
| 20260507064544 | 10 | 0 | 3.2 | 8.0 | 0.00 | 0.66 | 0.00 | 86 | 1007.4 |
| 20260507064021 | 10 | 301 | 3.2 | 11.3 | 0.00 | 0.66 | 0.00 | 86 | 1007.3 |
| 20260507063522 | 10 | 297 | 3.2 | 11.3 | 0.00 | 0.66 | 0.00 | 86 | 1007.6 |
| 20260507063042 | 10 | 279 | 3.2 | 9.7 | 0.00 | 0.66 | 0.00 | 86 | 1007.5 |
| 20260507062520 | 10 | 283 | 3.2 | 8.0 | 0.00 | 0.66 | 0.00 | 86 | 1007.2 |
| 20260507062020 | 10 | 317 | 1.6 | 9.7 | 0.00 | 0.66 | 0.00 | 86 | 1007.1 |
| 20260507061538 | 10 | 307 | 3.2 | 14.5 | 0.00 | 0.66 | 0.00 | 86 | 1007.2 |
| 20260507061024 | 10 | 261 | 4.8 | 14.5 | 0.00 | 0.66 | 0.00 | 86 | 1007.5 |
| 20260507060519 | 10 | 269 | 4.8 | 14.5 | 0.00 | 0.66 | 0.00 | 85 | 1007.2 |
| 20260507060040 | 10 | 302 | 3.2 | 12.9 | 0.00 | 0.66 | 0.00 | 85 | 1007.3 |
| 20260507055519 | 10 | 323 | 3.2 | 11.3 | 0.00 | 0.66 | 0.00 | 85 | 1007.7 |
| 20260507055019 | 10 | 272 | 4.8 | 14.5 | 0.00 | 0.66 | 0.00 | 84 | 1007.9 |
| 20260507054540 | 10 | 286 | 3.2 | 14.5 | 0.00 | 0.66 | 0.00 | 84 | 1007.9 |
| 20260507054019 | 10 | 325 | 4.8 | 16.1 | 0.00 | 0.66 | 0.00 | 83 | 1007.7 |
| 20260507053520 | 10 | 275 | 8.0 | 16.1 | 0.00 | 0.66 | 0.00 | 83 | 1007.8 |
| 20260507053036 | 10 | 308 | 8.0 | 14.5 | 0.00 | 0.66 | 0.00 | 83 | 1008.0 |
| 20260507052518 | 10 | 319 | 6.4 | 16.1 | 0.00 | 0.66 | 0.00 | 83 | 1007.9 |
| 20260507052020 | 10 | 315 | 6.4 | 16.1 | 0.00 | 0.66 | 0.00 | 83 | 1007.9 |
| 20260507051536 | 10 | 314 | 6.4 | 14.5 | 0.00 | 0.66 | 0.00 | 83 | 1007.9 |
| 20260507051019 | 10 | 293 | 3.2 | 12.9 | 0.00 | 0.66 | 0.00 | 84 | 1007.8 |
| 20260507050518 | 10 | 275 | 6.4 | 14.5 | 0.00 | 0.66 | 0.00 | 84 | 1007.8 |
| 20260507050037 | 10 | 257 | 4.8 | 14.5 | 0.00 | 0.66 | 0.00 | 84 | 1007.6 |
| 20260507045519 | 10 | 262 | 6.4 | 14.5 | 0.00 | 0.66 | 0.00 | 84 | 1007.6 |
| 20260507045019 | 10 | 313 | 6.4 | 16.1 | 0.00 | 0.66 | 0.00 | 85 | 1007.5 |
| 20260507044556 | 11 | 273 | 9.7 | 20.9 | 0.00 | 0.66 | 0.00 | 85 | 1007.4 |
| 20260507044021 | 11 | 279 | 9.7 | 20.9 | 0.00 | 0.66 | 0.00 | 86 | 1007.6 |
| 20260507043520 | 11 | 281 | 8.0 | 17.7 | 0.00 | 0.66 | 0.00 | 87 | 1007.9 |
| 20260507043042 | 11 | 322 | 3.2 | 11.3 | 0.03 | 0.66 | 0.00 | 87 | 1007.8 |
| 20260507042520 | 11 | 255 | 3.2 | 14.5 | 0.03 | 0.66 | 0.00 | 87 | 1007.8 |
| 20260507042024 | 11 | 297 | 3.2 | 16.1 | 0.03 | 0.66 | 0.00 | 87 | 1007.8 |
| 20260507041545 | 11 | 309 | 4.8 | 16.1 | 0.03 | 0.66 | 0.00 | 86 | 1007.9 |
| 20260507041021 | 11 | 258 | 4.8 | 14.5 | 0.03 | 0.66 | 0.00 | 86 | 1008.0 |
| 20260507040518 | 11 | 261 | 6.4 | 14.5 | 0.03 | 0.66 | 0.00 | 86 | 1008.0 |
| 20260507040042 | 11 | 284 | 6.4 | 17.7 | 0.03 | 0.66 | 0.00 | 87 | 1007.8 |
| 20260507035520 | 11 | 273 | 4.8 | 17.7 | 0.03 | 0.66 | 0.66 | 87 | 1007.5 |
| 20260507035019 | 11 | 319 | 4.8 | 14.5 | 0.03 | 0.66 | 0.66 | 89 | 1007.4 |
| 20260507034541 | 11 | 295 | 6.4 | 19.3 | 0.03 | 0.66 | 0.66 | 89 | 1007.4 |
| 20260507034020 | 12 | 293 | 8.0 | 19.3 | 0.03 | 0.66 | 0.66 | 89 | 1007.3 |
| 20260507033519 | 12 | 287 | 8.0 | 19.3 | 0.03 | 0.66 | 0.66 | 89 | 1007.2 |
| 20260507033047 | 12 | 300 | 6.4 | 19.3 | 0.00 | 0.64 | 0.64 | 90 | 1007.2 |
| 20260507032520 | 12 | 321 | 8.0 | 14.5 | 0.00 | 0.64 | 0.64 | 90 | 1007.2 |
| 20260507032024 | 13 | 303 | 4.8 | 17.7 | 0.00 | 0.64 | 0.64 | 90 | 1007.1 |
| 20260507031554 | 13 | 284 | 6.4 | 17.7 | 0.00 | 0.64 | 0.64 | 89 | 1006.9 |
| 20260507031021 | 13 | 310 | 6.4 | 20.9 | 0.00 | 0.64 | 0.64 | 89 | 1006.8 |
| 20260507030519 | 13 | 312 | 6.4 | 20.9 | 0.00 | 0.64 | 0.64 | 89 | 1006.8 |
| 20260507030100 | 14 | 313 | 6.4 | 17.7 | 0.00 | 0.64 | 0.64 | 89 | 1006.8 |
| 20260507025519 | 14 | 273 | 9.7 | 19.3 | 0.00 | 0.64 | 0.64 | 89 | 1006.9 |
| 20260507025022 | 14 | 319 | 9.7 | 19.3 | 0.00 | 0.64 | 0.64 | 90 | 1006.8 |
| 20260507024600 | 14 | 323 | 8.0 | 19.3 | 0.00 | 0.64 | 0.64 | 91 | 1006.6 |
| 20260507024018 | 14 | 296 | 6.4 | 16.1 | 0.00 | 0.64 | 0.64 | 92 | 1006.7 |
| 20260507023520 | 15 | 271 | 4.8 | 14.5 | 0.00 | 0.64 | 0.64 | 94 | 1006.7 |
| 20260507023035 | 15 | 275 | 4.8 | 14.5 | 0.00 | 0.64 | 0.64 | 94 | 1006.5 |
| 20260507022520 | 15 | 290 | 3.2 | 12.9 | 0.00 | 0.64 | 0.64 | 94 | 1006.4 |
| 20260507022019 | 15 | 178 | 0.0 | 9.7 | 0.00 | 0.64 | 0.64 | 94 | 1006.1 |
| 20260507021537 | 15 | 0 | 3.2 | 9.7 | 0.00 | 0.64 | 0.64 | 94 | 1006.0 |
| 20260507021018 | 15 | 0 | 1.6 | 8.0 | 0.00 | 0.64 | 0.64 | 94 | 1006.0 |
| 20260507020520 | 15 | 202 | 1.6 | 6.4 | 0.00 | 0.64 | 0.64 | 94 | 1006.0 |
| 20260507020042 | 15 | 167 | 1.6 | 6.4 | 0.00 | 0.64 | 0.64 | 94 | 1006.2 |
| 20260507015518 | 15 | 138 | 1.6 | 11.3 | 0.00 | 0.64 | 0.64 | 94 | 1006.1 |
| 20260507015018 | 15 | 0 | 1.6 | 11.3 | 0.00 | 0.64 | 0.64 | 94 | 1006.0 |
| 20260507014543 | 15 | 253 | 1.6 | 6.4 | 0.00 | 0.64 | 0.64 | 94 | 1006.0 |
| 20260507014019 | 15 | 118 | 1.6 | 14.5 | 0.00 | 0.64 | 0.64 | 94 | 1006.0 |
| 20260507013519 | 15 | 207 | 1.6 | 14.5 | 0.00 | 0.64 | 0.64 | 94 | 1006.0 |
| 20260507013042 | 15 | 324 | 3.2 | 14.5 | 0.00 | 0.64 | 0.64 | 94 | 1005.9 |
| 20260507012521 | 15 | 140 | 1.6 | 8.0 | 0.00 | 0.64 | 0.64 | 94 | 1006.0 |
| 20260507012019 | 15 | 0 | 1.6 | 9.7 | 0.00 | 0.64 | 0.64 | 94 | 1006.0 |
| 20260507011546 | 15 | 163 | 3.2 | 9.7 | 0.00 | 0.64 | 0.64 | 93 | 1006.0 |
| 20260507011019 | 15 | 224 | 1.6 | 11.3 | 0.00 | 0.64 | 0.64 | 93 | 1006.0 |
| 20260507010519 | 15 | 178 | 1.6 | 11.3 | 0.00 | 0.64 | 0.64 | 93 | 1006.0 |
| 20260507010042 | 15 | 86 | 1.6 | 11.3 | 0.00 | 0.64 | 0.64 | 94 | 1006.0 |
| 20260507005519 | 15 | 185 | 0.0 | 9.7 | 0.00 | 0.64 | 0.64 | 94 | 1006.1 |
| 20260507005023 | 15 | 243 | 3.2 | 9.7 | 0.00 | 0.64 | 0.64 | 94 | 1006.0 |
| 20260507004534 | 15 | 165 | 1.6 | 9.7 | 0.00 | 0.64 | 0.64 | 94 | 1006.1 |
| 20260507004019 | 15 | 277 | 1.6 | 9.7 | 0.00 | 0.64 | 0.64 | 94 | 1005.9 |
| 20260507003519 | 15 | 127 | 1.6 | 8.0 | 0.00 | 0.64 | 0.64 | 93 | 1005.8 |
| 20260507003035 | 15 | 207 | 0.0 | 12.9 | 0.00 | 0.64 | 0.64 | 93 | 1005.7 |
| 20260507002518 | 15 | 188 | 1.6 | 14.5 | 0.00 | 0.64 | 0.64 | 93 | 1005.7 |
| 20260507002019 | 15 | 119 | 4.8 | 14.5 | 0.00 | 0.64 | 0.64 | 94 | 1005.8 |
| 20260507001536 | 15 | 188 | 3.2 | 14.5 | 0.00 | 0.64 | 0.64 | 93 | 1005.8 |
| 20260507001018 | 15 | 180 | 3.2 | 9.7 | 0.00 | 0.64 | 0.64 | 93 | 1005.8 |
| 20260507000519 | 15 | 153 | 1.6 | 9.7 | 0.00 | 0.64 | 0.64 | 93 | 1005.7 |
| 20260507000036 | 15 | 98 | 3.2 | 9.7 | 0.03 | 0.64 | 0.64 | 93 | 1005.8 |
| 20260506235519 | 15 | 167 | 3.2 | 16.1 | 0.03 | 0.64 | 0.64 | 93 | 1005.7 |
| 20260506235018 | 15 | 159 | 3.2 | 16.1 | 0.03 | 0.64 | 0.64 | 93 | 1005.7 |
| 20260506234545 | 15 | 184 | 4.8 | 16.1 | 0.03 | 0.64 | 0.64 | 93 | 1005.7 |
| 20260506234020 | 15 | 159 | 3.2 | 11.3 | 0.03 | 0.64 | 0.64 | 93 | 1005.6 |
| 20260506233517 | 15 | 182 | 3.2 | 11.3 | 0.03 | 0.64 | 0.64 | 93 | 1005.6 |
| 20260506233044 | 15 | 0 | 3.2 | 11.3 | 0.03 | 0.64 | 0.64 | 93 | 1005.7 |
| 20260506232516 | 15 | 225 | 1.6 | 11.3 | 0.03 | 0.64 | 0.64 | 93 | 1005.8 |
| 20260506232016 | 15 | 202 | 1.6 | 11.3 | 0.03 | 0.64 | 0.64 | 93 | 1005.8 |
| 20260506231535 | 15 | 169 | 4.8 | 11.3 | 0.03 | 0.64 | 0.64 | 93 | 1005.7 |
| 20260506231016 | 15 | 96 | 3.2 | 11.3 | 0.03 | 0.64 | 0.64 | 93 | 1005.7 |
| 20260506230515 | 15 | 187 | 3.2 | 11.3 | 0.03 | 0.64 | 0.64 | 93 | 1005.8 |
| 20260506230040 | 15 | 96 | 3.2 | 11.3 | 0.00 | 0.61 | 0.61 | 93 | 1005.8 |
| 20260506225521 | 15 | 202 | 3.2 | 12.9 | 0.00 | 0.61 | 0.61 | 93 | 1005.9 |
| 20260506225023 | 15 | 104 | 1.6 | 12.9 | 0.00 | 0.61 | 0.61 | 93 | 1006.0 |
| 20260506224541 | 15 | 181 | 1.6 | 12.9 | 0.00 | 0.61 | 0.61 | 93 | 1005.9 |
| 20260506224021 | 15 | 134 | 1.6 | 12.9 | 0.00 | 0.61 | 0.61 | 93 | 1005.9 |
| 20260506223519 | 15 | 150 | 3.2 | 12.9 | 0.00 | 0.61 | 0.61 | 93 | 1005.9 |
| 20260506223035 | 15 | 197 | 3.2 | 14.5 | 0.03 | 0.61 | 0.61 | 93 | 1006.0 |
| 20260506222519 | 15 | 232 | 3.2 | 14.5 | 0.03 | 0.61 | 0.61 | 93 | 1006.0 |
| 20260506222020 | 15 | 223 | 3.2 | 12.9 | 0.05 | 0.61 | 0.61 | 93 | 1006.0 |
| 20260506221545 | 15 | 167 | 3.2 | 11.3 | 0.05 | 0.61 | 0.61 | 93 | 1006.0 |
| 20260506221020 | 15 | 111 | 1.6 | 11.3 | 0.08 | 0.61 | 0.61 | 93 | 1006.1 |
| 20260506220520 | 15 | 202 | 3.2 | 11.3 | 0.08 | 0.61 | 0.61 | 93 | 1006.1 |
| 20260506220043 | 15 | 236 | 3.2 | 11.3 | 0.10 | 0.61 | 0.61 | 93 | 1006.2 |
| 20260506215521 | 15 | 200 | 3.2 | 11.3 | 0.13 | 0.61 | 0.61 | 93 | 1006.1 |
| 20260506215019 | 15 | 184 | 1.6 | 14.5 | 0.15 | 0.61 | 0.61 | 93 | 1006.2 |
| 20260506214545 | 15 | 110 | 1.6 | 14.5 | 0.18 | 0.61 | 0.61 | 93 | 1006.1 |
| 20260506214022 | 15 | 144 | 1.6 | 12.9 | 0.18 | 0.61 | 0.61 | 93 | 1006.2 |
| 20260506213522 | 15 | 0 | 1.6 | 12.9 | 0.18 | 0.61 | 0.61 | 93 | 1006.1 |
| 20260506213040 | 15 | 167 | 1.6 | 11.3 | 0.15 | 0.58 | 0.58 | 92 | 1006.3 |
| 20260506212519 | 15 | 0 | 1.6 | 9.7 | 0.18 | 0.58 | 0.58 | 92 | 1006.2 |
| 20260506212023 | 15 | 240 | 3.2 | 12.9 | 0.15 | 0.56 | 0.56 | 92 | 1006.4 |
| 20260506211538 | 15 | 176 | 3.2 | 12.9 | 0.15 | 0.56 | 0.56 | 92 | 1006.4 |
| 20260506211021 | 15 | 132 | 3.2 | 12.9 | 0.13 | 0.53 | 0.53 | 92 | 1006.5 |
| 20260506210521 | 15 | 84 | 3.2 | 12.9 | 0.15 | 0.53 | 0.53 | 92 | 1006.5 |
| 20260506210036 | 15 | 225 | 3.2 | 14.5 | 0.15 | 0.51 | 0.51 | 92 | 1006.5 |
| 20260506205521 | 16 | 164 | 3.2 | 14.5 | 0.13 | 0.48 | 0.48 | 92 | 1006.5 |
| 20260506205021 | 16 | 140 | 3.2 | 12.9 | 0.10 | 0.46 | 0.46 | 92 | 1006.6 |
| 20260506204536 | 16 | 96 | 1.6 | 11.3 | 0.08 | 0.43 | 0.43 | 92 | 1006.7 |
| 20260506204021 | 16 | 94 | 3.2 | 12.9 | 0.08 | 0.43 | 0.43 | 91 | 1006.6 |
| 20260506203520 | 16 | 187 | 4.8 | 12.9 | 0.08 | 0.43 | 0.43 | 91 | 1006.7 |
| 20260506203042 | 16 | 119 | 1.6 | 11.3 | 0.08 | 0.43 | 0.43 | 91 | 1006.7 |
| 20260506202521 | 16 | 137 | 3.2 | 11.3 | 0.05 | 0.41 | 0.41 | 91 | 1006.6 |
| 20260506202021 | 16 | 0 | 1.6 | 9.7 | 0.05 | 0.41 | 0.41 | 91 | 1006.6 |
| 20260506201541 | 16 | 181 | 1.6 | 9.7 | 0.05 | 0.41 | 0.41 | 91 | 1006.7 |
| 20260506201021 | 16 | 192 | 1.6 | 14.5 | 0.05 | 0.41 | 0.41 | 91 | 1006.7 |
| 20260506200520 | 16 | 104 | 3.2 | 16.1 | 0.05 | 0.38 | 0.38 | 91 | 1006.8 |
| 20260506200041 | 16 | 126 | 4.8 | 16.1 | 0.03 | 0.36 | 0.36 | 90 | 1006.9 |
| 20260506195525 | 16 | 221 | 3.2 | 16.1 | 0.03 | 0.36 | 0.36 | 91 | 1006.9 |
| 20260506195021 | 16 | 222 | 1.6 | 9.7 | 0.03 | 0.36 | 0.36 | 92 | 1006.8 |
| 20260506194536 | 16 | 186 | 0.0 | 4.8 | 0.05 | 0.36 | 0.36 | 92 | 1006.9 |
| 20260506194020 | 16 | 0 | 0.0 | 4.8 | 0.08 | 0.36 | 0.36 | 91 | 1006.8 |
| 20260506193520 | 16 | 213 | 0.0 | 4.8 | 0.08 | 0.36 | 0.36 | 91 | 1006.7 |
| 20260506193036 | 16 | 0 | 1.6 | 4.8 | 0.08 | 0.36 | 0.36 | 91 | 1006.8 |
| 20260506192521 | 16 | 108 | 0.0 | 6.4 | 0.10 | 0.36 | 0.36 | 91 | 1006.7 |
| 20260506192024 | 16 | 199 | 0.0 | 6.4 | 0.13 | 0.36 | 0.36 | 91 | 1006.8 |
| 20260506191535 | 16 | 213 | 1.6 | 6.4 | 0.15 | 0.36 | 0.36 | 91 | 1006.5 |
| 20260506191020 | 16 | 0 | 1.6 | 11.3 | 0.20 | 0.36 | 0.36 | 91 | 1006.6 |
| 20260506190520 | 16 | 172 | 3.2 | 11.3 | 0.20 | 0.33 | 0.33 | 90 | 1007.0 |
| 20260506190042 | 16 | 138 | 0.0 | 4.8 | 0.20 | 0.33 | 0.33 | 91 | 1007.0 |
| 20260506185520 | 16 | 105 | 0.0 | 4.8 | 0.23 | 0.33 | 0.33 | 90 | 1007.0 |
| 20260506185020 | 16 | 184 | 0.0 | 3.2 | 0.20 | 0.30 | 0.30 | 90 | 1007.0 |
| 20260506184547 | 16 | 0 | 0.0 | 1.6 | 0.20 | 0.30 | 0.30 | 90 | 1007.1 |
| 20260506184022 | 16 | 0 | 0.0 | 3.2 | 0.20 | 0.28 | 0.28 | 90 | 1007.4 |
| 20260506183520 | 16 | 0 | 0.0 | 4.8 | 0.23 | 0.28 | 0.28 | 89 | 1007.5 |
| 20260506183035 | 16 | 275 | 0.0 | 4.8 | 0.25 | 0.25 | 0.25 | 88 | 1007.4 |
| 20260506182520 | 17 | 271 | 1.6 | 4.8 | 0.25 | 0.25 | 0.25 | 88 | 1007.5 |
| 20260506182020 | 17 | 0 | 0.0 | 6.4 | 0.23 | 0.23 | 0.23 | 88 | 1007.6 |
| 20260506181534 | 17 | 245 | 1.6 | 6.4 | 0.18 | 0.18 | 0.18 | 87 | 1007.8 |
| 20260506181020 | 17 | 292 | 1.6 | 8.0 | 0.15 | 0.15 | 0.15 | 86 | 1007.6 |
| 20260506180521 | 17 | 271 | 3.2 | 8.0 | 0.13 | 0.13 | 0.13 | 85 | 1007.6 |
| 20260506180035 | 17 | 298 | 1.6 | 14.5 | 0.13 | 0.13 | 0.13 | 85 | 1007.7 |
| 20260506175521 | 17 | 254 | 1.6 | 14.5 | 0.10 | 0.10 | 0.10 | 84 | 1007.8 |
| 20260506175021 | 18 | 269 | 4.8 | 14.5 | 0.10 | 0.10 | 0.10 | 82 | 1007.8 |
| 20260506174535 | 18 | 313 | 4.8 | 17.7 | 0.10 | 0.10 | 0.10 | 79 | 1007.8 |
| 20260506174020 | 19 | 292 | 9.7 | 22.5 | 0.08 | 0.08 | 0.08 | 75 | 1007.9 |
| 20260506173520 | 20 | 284 | 3.2 | 22.5 | 0.03 | 0.03 | 0.03 | 72 | 1007.7 |
| 20260506173113 | 21 | 247 | 8.0 | 22.5 | 0.00 | 0.00 | 0.00 | 67 | 1007.5 |
| 20260506172519 | 21 | 257 | 4.8 | 19.3 | 0.00 | 0.00 | 0.00 | 63 | 1007.2 |
| 20260506172020 | 21 | 248 | 3.2 | 22.5 | 0.00 | 0.00 | 0.00 | 62 | 1007.1 |
| 20260506171539 | 21 | 225 | 6.4 | 22.5 | 0.00 | 0.00 | 0.00 | 61 | 1007.1 |
| 20260506171022 | 22 | 263 | 4.8 | 19.3 | 0.00 | 0.00 | 0.00 | 62 | 1007.4 |
| 20260506170520 | 22 | 190 | 4.8 | 19.3 | 0.00 | 0.00 | 0.00 | 62 | 1007.3 |
| 20260506170040 | 22 | 245 | 4.8 | 16.1 | 0.00 | 0.00 | 0.00 | 62 | 1007.4 |
| 20260506165520 | 22 | 177 | 4.8 | 17.7 | 0.00 | 0.00 | 0.00 | 62 | 1007.4 |
| 20260506165021 | 22 | 202 | 6.4 | 20.9 | 0.00 | 0.00 | 0.00 | 62 | 1007.5 |
| 20260506164536 | 22 | 38 | 3.2 | 20.9 | 0.00 | 0.00 | 0.00 | 63 | 1007.6 |
| 20260506164020 | 21 | 207 | 4.8 | 20.9 | 0.00 | 0.00 | 0.00 | 63 | 1007.7 |
| 20260506163523 | 21 | 135 | 6.4 | 17.7 | 0.00 | 0.00 | 0.00 | 65 | 1007.7 |
| 20260506163037 | 21 | 204 | 3.2 | 17.7 | 0.00 | 0.00 | 0.00 | 66 | 1007.9 |
| 20260506162519 | 21 | 335 | 3.2 | 17.7 | 0.00 | 0.00 | 0.00 | 65 | 1008.0 |
| 20260506162020 | 21 | 243 | 4.8 | 14.5 | 0.00 | 0.00 | 0.00 | 65 | 1008.0 |
| 20260506161534 | 21 | 76 | 6.4 | 16.1 | 0.00 | 0.00 | 0.00 | 65 | 1008.0 |
| 20260506161017 | 21 | 0 | 6.4 | 17.7 | 0.00 | 0.00 | 0.00 | 66 | 1008.1 |
| 20260506160517 | 21 | 174 | 6.4 | 17.7 | 0.00 | 0.00 | 0.00 | 66 | 1008.2 |
| 20260506160040 | 21 | 237 | 6.4 | 17.7 | 0.00 | 0.00 | 0.00 | 66 | 1008.5 |
| 20260506155517 | 21 | 180 | 4.8 | 19.3 | 0.00 | 0.00 | 0.00 | 67 | 1008.6 |
| 20260506155017 | 20 | 217 | 3.2 | 19.3 | 0.00 | 0.00 | 0.00 | 67 | 1008.9 |
| 20260506154545 | 20 | 215 | 4.8 | 16.1 | 0.00 | 0.00 | 0.00 | 67 | 1008.9 |
| 20260506154019 | 20 | 208 | 6.4 | 20.9 | 0.00 | 0.00 | 0.00 | 66 | 1009.0 |
| 20260506153517 | 20 | 88 | 8.0 | 20.9 | 0.00 | 0.00 | 0.00 | 67 | 1008.9 |
| 20260506153035 | 20 | 76 | 3.2 | 19.3 | 0.00 | 0.00 | 0.00 | 67 | 1009.2 |
| 20260506152517 | 20 | 285 | 1.6 | 19.3 | 0.00 | 0.00 | 0.00 | 68 | 1009.2 |
| 20260506152018 | 20 | 223 | 3.2 | 17.7 | 0.00 | 0.00 | 0.00 | 68 | 1009.3 |
| 20260506151536 | 20 | 0 | 4.8 | 20.9 | 0.00 | 0.00 | 0.00 | 68 | 1009.4 |
| 20260506151020 | 20 | 202 | 9.7 | 20.9 | 0.00 | 0.00 | 0.00 | 67 | 1009.6 |
| 20260506150516 | 20 | 235 | 6.4 | 19.3 | 0.00 | 0.00 | 0.00 | 68 | 1009.5 |
| 20260506150035 | 20 | 223 | 8.0 | 19.3 | 0.00 | 0.00 | 0.00 | 68 | 1009.3 |
| 20260506145518 | 20 | 16 | 6.4 | 19.3 | 0.00 | 0.00 | 0.00 | 68 | 1009.2 |
| 20260506145016 | 20 | 220 | 3.2 | 19.3 | 0.00 | 0.00 | 0.00 | 70 | 1009.5 |
| 20260506144538 | 20 | 150 | 6.4 | 19.3 | 0.00 | 0.00 | 0.00 | 69 | 1009.4 |
| 20260506144017 | 20 | 163 | 6.4 | 19.3 | 0.00 | 0.00 | 0.00 | 69 | 1009.3 |
| 20260506143519 | 20 | 221 | 1.6 | 14.5 | 0.00 | 0.00 | 0.00 | 71 | 1009.3 |
| 20260506143042 | 20 | 221 | 3.2 | 19.3 | 0.00 | 0.00 | 0.00 | 71 | 1009.2 |
| 20260506142518 | 19 | 182 | 3.2 | 19.3 | 0.00 | 0.00 | 0.00 | 71 | 1009.2 |
| 20260506142016 | 19 | 132 | 9.7 | 19.3 | 0.00 | 0.00 | 0.00 | 71 | 1009.2 |
| 20260506141534 | 19 | 195 | 4.8 | 17.7 | 0.00 | 0.00 | 0.00 | 71 | 1009.3 |
| 20260506141020 | 19 | 208 | 4.8 | 17.7 | 0.00 | 0.00 | 0.00 | 71 | 1009.3 |
| 20260506140517 | 19 | 169 | 4.8 | 12.9 | 0.00 | 0.00 | 0.00 | 72 | 1008.9 |
| 20260506140035 | 19 | 207 | 4.8 | 14.5 | 0.00 | 0.00 | 0.00 | 72 | 1009.0 |
| 20260506135515 | 19 | 159 | 4.8 | 14.5 | 0.00 | 0.00 | 0.00 | 72 | 1009.0 |
| 20260506135016 | 19 | 173 | 4.8 | 14.5 | 0.00 | 0.00 | 0.00 | 74 | 1009.2 |
| 20260506134535 | 18 | 170 | 1.6 | 14.5 | 0.00 | 0.00 | 0.00 | 74 | 1009.2 |
| 20260506134017 | 18 | 207 | 4.8 | 14.5 | 0.00 | 0.00 | 0.00 | 74 | 1009.3 |
| 20260506133520 | 18 | 122 | 1.6 | 14.5 | 0.00 | 0.00 | 0.00 | 75 | 1009.4 |
| 20260506133031 | 18 | 141 | 3.2 | 19.3 | 0.00 | 0.00 | 0.00 | 74 | 1009.5 |
| 20260506132522 | 18 | 210 | 8.0 | 19.3 | 0.00 | 0.00 | 0.00 | 74 | 1009.6 |
| 20260506132016 | 18 | 182 | 6.4 | 16.1 | 0.00 | 0.00 | 0.00 | 74 | 1009.6 |
| 20260506131548 | 18 | 204 | 4.8 | 14.5 | 0.00 | 0.00 | 0.00 | 75 | 1009.7 |
| 20260506131020 | 18 | 171 | 3.2 | 9.7 | 0.00 | 0.00 | 0.00 | 75 | 1009.7 |
| 20260506130519 | 18 | 142 | 3.2 | 14.5 | 0.00 | 0.00 | 0.00 | 75 | 1009.6 |
| 20260506130052 | 18 | 157 | 3.2 | 17.7 | 0.00 | 0.00 | 0.00 | 75 | 1009.6 |
| 20260506125521 | 18 | 157 | 6.4 | 22.5 | 0.00 | 0.00 | 0.00 | 74 | 1009.6 |
| 20260506125022 | 18 | 182 | 4.8 | 22.5 | 0.00 | 0.00 | 0.00 | 74 | 1009.7 |
| 20260506124537 | 18 | 235 | 4.8 | 19.3 | 0.00 | 0.00 | 0.00 | 74 | 1009.7 |
| 20260506124020 | 18 | 215 | 1.6 | 14.5 | 0.00 | 0.00 | 0.00 | 75 | 1009.7 |
| 20260506123520 | 17 | 194 | 3.2 | 14.5 | 0.00 | 0.00 | 0.00 | 76 | 1009.5 |
| 20260506123034 | 17 | 238 | 4.8 | 14.5 | 0.00 | 0.00 | 0.00 | 76 | 1009.6 |
| 20260506122520 | 17 | 246 | 4.8 | 17.7 | 0.00 | 0.00 | 0.00 | 76 | 1009.5 |
| 20260506122017 | 17 | 157 | 4.8 | 17.7 | 0.00 | 0.00 | 0.00 | 76 | 1009.6 |
| 20260506121535 | 17 | 134 | 6.4 | 14.5 | 0.00 | 0.00 | 0.00 | 76 | 1009.7 |
| 20260506121019 | 17 | 157 | 3.2 | 12.9 | 0.00 | 0.00 | 0.00 | 76 | 1009.9 |
| 20260506120522 | 17 | 200 | 3.2 | 12.9 | 0.00 | 0.00 | 0.00 | 76 | 1009.8 |
| 20260506120040 | 17 | 223 | 3.2 | 16.1 | 0.00 | 0.00 | 0.00 | 77 | 1009.9 |
| 20260506115519 | 16 | 142 | 4.8 | 16.1 | 0.00 | 0.00 | 0.00 | 78 | 1009.9 |
| 20260506115020 | 16 | 290 | 3.2 | 9.7 | 0.00 | 0.00 | 0.00 | 78 | 1010.1 |
| 20260506114540 | 16 | 151 | 3.2 | 9.7 | 0.00 | 0.00 | 0.00 | 78 | 1010.2 |
| 20260506114020 | 16 | 214 | 1.6 | 16.1 | 0.00 | 0.00 | 0.00 | 78 | 1010.1 |
| 20260506113520 | 16 | 201 | 1.6 | 16.1 | 0.00 | 0.00 | 0.00 | 78 | 1010.1 |
| 20260506113045 | 16 | 246 | 3.2 | 12.9 | 0.00 | 0.00 | 0.00 | 78 | 1010.1 |
| 20260506112519 | 16 | 144 | 3.2 | 14.5 | 0.00 | 0.00 | 0.00 | 78 | 1010.2 |
| 20260506112020 | 16 | 178 | 3.2 | 16.1 | 0.00 | 0.00 | 0.00 | 78 | 1010.3 |
| 20260506111534 | 16 | 146 | 3.2 | 16.1 | 0.00 | 0.00 | 0.00 | 78 | 1010.2 |
| 20260506111017 | 16 | 211 | 1.6 | 12.9 | 0.00 | 0.00 | 0.00 | 78 | 1010.2 |
| 20260506110517 | 16 | 168 | 4.8 | 16.1 | 0.00 | 0.00 | 0.00 | 78 | 1010.2 |
| 20260506110038 | 16 | 224 | 4.8 | 16.1 | 0.00 | 0.00 | 0.00 | 79 | 1010.1 |
| 20260506105516 | 16 | 87 | 3.2 | 11.3 | 0.00 | 0.00 | 0.00 | 79 | 1010.1 |
| 20260506105021 | 15 | 28 | 3.2 | 12.9 | 0.00 | 0.00 | 0.00 | 79 | 1010.1 |
| 20260506104548 | 15 | 225 | 3.2 | 12.9 | 0.00 | 0.00 | 0.00 | 79 | 1010.3 |
| 20260506104020 | 15 | 96 | 3.2 | 12.9 | 0.00 | 0.00 | 0.00 | 79 | 1010.4 |
| 20260506103520 | 15 | 98 | 3.2 | 12.9 | 0.00 | 0.00 | 0.00 | 79 | 1010.2 |
| 20260506103047 | 15 | 221 | 3.2 | 12.9 | 0.00 | 0.00 | 0.00 | 79 | 1010.1 |
| 20260506102520 | 15 | 126 | 1.6 | 8.0 | 0.00 | 0.00 | 0.00 | 79 | 1010.1 |
| 20260506102020 | 15 | 107 | 3.2 | 9.7 | 0.00 | 0.00 | 0.00 | 79 | 1010.0 |
| 20260506101550 | 15 | 0 | 1.6 | 9.7 | 0.00 | 0.00 | 0.00 | 78 | 1009.9 |
| 20260506101019 | 15 | 302 | 3.2 | 9.7 | 0.00 | 0.00 | 0.00 | 79 | 1010.1 |
| 20260506100519 | 15 | 242 | 3.2 | 8.0 | 0.00 | 0.00 | 0.00 | 79 | 1010.0 |
| 20260506100057 | 15 | 0 | 1.6 | 6.4 | 0.00 | 0.00 | 0.00 | 78 | 1010.0 |
| 20260506095520 | 15 | 0 | 0.0 | 11.3 | 0.00 | 0.00 | 0.00 | 78 | 1010.1 |
| 20260506095024 | 15 | 217 | 1.6 | 11.3 | 0.00 | 0.00 | 0.00 | 78 | 1010.1 |
| 20260506094534 | 15 | 180 | 3.2 | 11.3 | 0.00 | 0.00 | 0.00 | 78 | 1010.0 |
| 20260506094022 | 15 | 217 | 3.2 | 11.3 | 0.00 | 0.00 | 0.00 | 78 | 1010.0 |
| 20260506093517 | 15 | 146 | 3.2 | 11.3 | 0.00 | 0.00 | 0.00 | 78 | 1010.0 |
| 20260506093040 | 15 | 312 | 3.2 | 11.3 | 0.00 | 0.00 | 0.00 | 77 | 1009.8 |
| 20260506092517 | 16 | 180 | 1.6 | 14.5 | 0.00 | 0.00 | 0.00 | 77 | 1010.0 |
| 20260506092019 | 15 | 212 | 3.2 | 14.5 | 0.00 | 0.00 | 0.00 | 77 | 1010.1 |